STARLINK-2270

Last updated on Sat Apr 24 2021 00:02:02 GMT+0000 (Coordinated Universal Time)

1 48000U 21024Z 21113.25001157 .00078590 00000-0 55929-3 0 9992 2 48000 53.0487 55.6870 0000958 70.3813 88.0988 15.73190307 1824

Satellite not in orbit